Details From LLBG - Tel Aviv Ben Gurion
To LLET - Eilat
Flight Number -
Tags Generated
Created
Modified
Stats Distance 147 nm / 273 km
Max Altitude 0 ft / 0 m
Waypoints 2
Social Downloads 2
Likes 0
Share VATSIM

Download

Looking for another format? Having issues loading an existing format? Contact us
Advertisement - Login to hide

Notes

Generated

Route

LLBG LLET

ID Type Via Altitude Latitude Longitude Leg Dist Tot Dist Heading (true) Name
O LLBG APT - 0 ft / 0 m 32.00417˚ 34.89117˚ - 0 nm - -
O LLET APT - 0 ft / 0 m 29.55370˚ 34.95550˚ 147 nm 147 nm 179° / 179° -

Altitude Profile

Advertisement - Login to hide

LLBG

Details ICAO LLBG (TLV)
Name Tel Aviv Ben Gurion
Region Israel
Timezone Asia/Jerusalem (UTC+2.0)
Stats Elevation 135 ft / 41 m (AMSL)
Location 32.011468° 34.885059°
Runways 3
Magnetic Variation 4.688° E

METAR

LLBG 181450Z VRB03KT CAVOK 21/10 Q1018 NOSIG RMK BKN150

Decode

TAF

TAF TAF LLBG 181105Z 1812/1912 34006KT CAVOK BECMG 1814/1816 04004KT BECMG 1819/1821 10005KT PROB40 1906/1910 12012KT TX23/1812Z TN12/1904Z

Decode

Departure Runways

ID Width Length Bearing (true) Bearing (mag) Surface Threshold Offset Overrun Length
03 148 ft / 45 m 5,792 ft / 1,765 m 28.88° 24.19° Asphalt 0 ft / 0 m 216 ft / 66 m
08 148 ft / 45 m 12,017 ft / 3,663 m 79.72° 75.03° Asphalt 0 ft / 0 m 295 ft / 90 m
12 148 ft / 45 m 10,279 ft / 3,133 m 121.54° 116.85° Asphalt 0 ft / 0 m 328 ft / 100 m
21 148 ft / 45 m 5,792 ft / 1,765 m 208.88° 204.19° Asphalt 0 ft / 0 m 216 ft / 66 m
26 148 ft / 45 m 12,017 ft / 3,663 m 259.74° 255.05° Asphalt 1,969 ft / 600 m 205 ft / 62 m
30 148 ft / 45 m 10,279 ft / 3,133 m 301.56° 296.87° Asphalt 246 ft / 75 m 347 ft / 106 m

LLET

Details ICAO LLET (ETH)
Name EILAT
Region Israel
Timezone Asia/Jerusalem (UTC+2.0)
Stats Elevation 42 ft / 13 m (AMSL)
Location 29.561268° 34.960111°
Runways 1
Magnetic Variation 4.431° E

METAR

LLET 181450Z 20009KT CAVOK 24/08 Q1017

Decode

TAF

TAF LLET 181107Z 1812/1912 18005KT CAVOK BECMG 1816/1818 36006KT BECMG 1900/1902 03010KT PROB40 1910/1912 18005KT TX28/1812Z TN15/1904Z

Decode

Destination Runways

ID Width Length Bearing (true) Bearing (mag) Surface Threshold Offset Overrun Length
03 89 ft / 27 m 6,249 ft / 1,905 m 27.93° 23.50° Asphalt 945 ft / 288 m 125 ft / 38 m
21 89 ft / 27 m 6,249 ft / 1,905 m 207.93° 203.50° Asphalt 0 ft / 0 m 0 ft / 0 m

Popular Alternatives